Regional Weather Roundup
Issued by NWS

Home | Current Version | Previous Version | Graphics & Text | Print | Product List | Glossary On
Versions: 1 2 3 4 5 6 7 8 9 10 11 12 13 14 15 16 17 18 19 20 21 22 23 24 25 26 27 28 29 30 31 32 33 34 35 36 37 38 39 40 41 42 43 44 45 46 47 48 49 50
045
ASUS43 KIND 090859
RWRIN

WEATHER ROUNDUP FOR INDIANA
NATIONAL WEATHER SERVICE INDIANAPOLIS IN
400 AM EST FRI DEC 09 2016

NOTE: "FAIR" INDICATES FEW OR NO CLOUDS BELOW 12,000 FEET WITH NO
SIGNIFICANT WEATHER AND/OR OBSTRUCTIONS TO VISIBILITY.

* - STATION DOES NOT REPORT WEATHER SUCH AS PRECIPITATION OR FOG.

+ - STATION NOT QUALITY CONTROLLED BY THE NATIONAL WEATHER SERVICE.
    USE DATA WITH CAUTION...ESPECIALLY DEWPOINT AND RELATIVE
    HUMIDITY OBSERVATIONS.

INZ001>003-010>013-019-020-091000-
NORTHWEST INDIANA

CITY           SKY/WX    TMP DP  RH WIND       PRES   REMARKS
GARY /AIRPORT/ CLOUDY    24  19  78 W12       30.46R WCI  13
KNOX *+        CLOUDY    23   3  42 W13G20    30.44R WCI  11
LA PORTE +     FLURRIES  22  17  82 W12G17    30.41S WCI  11
MONTICELLO +   FLURRIES  22  13  67 W10       30.47R WCI  12

$$

LMZ046-743>745-091000-
SOUTHERN LAKE MICHIGAN

STATION/POSITION TIME  TEMP    WIND        PRES    WAVE
                       AIR SEA DIR/SP/G            HT
                 (UTC) (F)     (DEG/KT/KT) (MB)    (FT)

$$

INZ004-005-014>016-021>024-091000-
NORTH CENTRAL INDIANA

CITY           SKY/WX    TMP DP  RH WIND       PRES   REMARKS
GOSHEN         PTCLDY    22  16  78 W14       30.38R WCI   9
SOUTH BEND     LGT SNOW  21  19  92 W16       30.38S FOG     WCI   7
WARSAW +       PTCLDY    21  14  73 W14       30.39R WCI   8

$$

INZ006>009-017-018-025>027-091000-
NORTHEAST INDIANA

CITY           SKY/WX    TMP DP  RH WIND       PRES   REMARKS
ANGOLA *+      CLOUDY    21  18  86 W12       30.33R WCI   9
FORT WAYNE     PTCLDY    21  15  78 W13       30.40R WCI   9
KENDALLVILLE + PTCLDY    21  17  84 W14       30.35S WCI   8

$$

INZ028-029-035-036-043>045-051>053-091000-
WEST CENTRAL INDIANA

CITY           SKY/WX    TMP DP  RH WIND       PRES   REMARKS
CRAWFORDSVL +  FLURRIES  19  18  94 W7        30.50R WCI  10
GREENCASTLE +  LGT SNOW  21  19  93 W5        30.51R WCI  15
LAFAYETTE      CLOUDY    21  16  81 W9        30.49S WCI  11
TERRE HAUTE    FLURRIES  21  14  74 W8        30.54S WCI  11

$$

INZ030>032-037>040-046>048-054>057-064-065-091000-
CENTRAL INDIANA

CITY           SKY/WX    TMP DP  RH WIND       PRES   REMARKS
FRANKFORT +    FLURRIES  24  19  83 W12       30.48S WCI  12
GREENWOOD *+   CLOUDY    21  17  85 W10       30.49S WCI  10
INDIANAPOLIS   FLURRIES  21  16  81 W10       30.49R WCI  10
-EAGLE CREEK   FLURRIES  21  16  81 W8        30.48S WCI  11
KOKOMO +       FLURRIES  21  18  88 MISG      30.45S
SHELBYVILLE    FLURRIES  21  16  81 W9        30.48S WCI  11
ZIONSVILLE +   LGT SNOW  19  16  86 W9        30.48R WCI   9

$$

INZ033-034-041-042-049-050-058-059-091000-
EAST CENTRAL INDIANA

CITY           SKY/WX    TMP DP  RH WIND       PRES   REMARKS
MUNCIE         FLURRIES  21  17  84 W10       30.43S WCI  10

$$

INZ060-061-067>069-081>083-085>088-091000-
SOUTHWEST INDIANA

CITY           SKY/WX    TMP DP  RH WIND       PRES   REMARKS
EVANSVILLE     PTCLDY    23  12  62 NW6       30.59R WCI  16
HUNTINGBURG *+ CLOUDY    23  16  74 NW8       30.56S WCI  14

$$

INZ062-063-066-070>080-084-089>092-091000-
SOUTH CENTRAL AND SOUTHEAST INDIANA

CITY           SKY/WX    TMP DP  RH WIND       PRES   REMARKS
BLOOMINGTON    CLOUDY    21  13  71 W6        30.51S WCI  13
MADISON *+     CLOUDY    23  14  68 W6        30.53R WCI  16

$$





USA.gov is the U.S. government's official web portal to all federal, state and local government web resources and services.